Weather History for Lancaster, OH

Change the Weather History Date:

Tuesday, April 2, 2013

  Actual Average Record
Temperature  
Mean Temperature 32 °F -  
Max Temperature 45 °F 58 °F 83 °F (1986)
Min Temperature 21 °F 34 °F 17 °F (1964)
Degree Days  
Heating Degree Days 33    
Moisture  
Dew Point 14 °F    
Average Humidity 47    
Maximum Humidity 64    
Minimum Humidity 28    
Precipitation  
Precipitation 0.00 in - - ()
Sea Level Pressure  
Sea Level Pressure 30.21 in    
Wind  
Wind Speed 7 mph (NW)    
Max Wind Speed 14 mph    
Max Gust Speed 23 mph    
Visibility 10 miles    
Events      
Averages and records for this station are not official NWS values.
T = Trace of Precipitation, MM = Missing Value Source: NWS Daily Summary

Daily Weather History Graph

Daily Weather History Graph

Search for Another Location

Airport:

Trip Planner

Search our weather history database for the weather conditions in past years. The results will help you decide how hot, cold, wet, or windy it might be!

Date:

Astronomy

Apr. 02, 2013 Rise Set
Actual Time 7:12 AM EDT 7:56 PM EDT
Civil Twilight 6:45 AM EDT 8:23 PM EDT
Nautical Twilight 6:13 AM EDT 8:55 PM EDT
Astronomical Twilight 5:40 AM EDT 9:28 PM EDT
Moon 1:59 AM EDT (4/2) 12:03 PM EDT (4/2)
Length of Visible Light 13h 37m
Length of Day
12h 43m
Waning Gibbous, 56% of the Moon is Illuminated
Apr 2
Waning Gibbous
Apr 3
Last Quarter
Apr 10
New
Apr 18
First Quarter
Apr 25
Full

Hourly Weather History & Observations

Time (EDT) Temp. Windchill Dew Point Humidity Pressure Visibility Wind Dir Wind Speed Gust Speed Precip Events Conditions
12:53 AM 32.0 °F 24.2 °F 14.0 °F 48% 30.12 in 10.0 mi North 9.2 mph - N/A   Clear
1:53 AM 30.0 °F 23.2 °F 14.0 °F 51% 30.13 in 10.0 mi North 6.9 mph - N/A   Partly Cloudy
2:53 AM 28.0 °F 20.8 °F 14.0 °F 56% 30.14 in 10.0 mi North 6.9 mph - N/A   Clear
3:53 AM 28.0 °F 22.8 °F 14.0 °F 56% 30.14 in 10.0 mi North 4.6 mph - N/A   Mostly Cloudy
4:53 AM 26.1 °F 21.9 °F 12.9 °F 58% 30.15 in 10.0 mi NNW 3.5 mph - N/A   Scattered Clouds
5:53 AM 24.1 °F 19.7 °F 12.0 °F 60% 30.18 in 10.0 mi NW 3.5 mph - N/A   Clear
6:53 AM 21.9 °F - 10.9 °F 63% 30.20 in 10.0 mi Calm Calm - N/A   Clear
7:53 AM 24.1 °F - 12.9 °F 62% 30.23 in 10.0 mi Calm Calm - N/A   Clear
8:53 AM 30.0 °F 25.2 °F 12.9 °F 49% 30.25 in 10.0 mi WNW 4.6 mph - N/A   Clear
9:53 AM 33.1 °F 27.7 °F 12.0 °F 42% 30.26 in 10.0 mi West 5.8 mph - N/A   Clear
10:53 AM 33.1 °F 28.7 °F 14.0 °F 46% 30.27 in 10.0 mi West 4.6 mph - N/A   Mostly Cloudy
11:53 AM 36.0 °F 29.6 °F 14.0 °F 41% 30.27 in 10.0 mi WNW 8.1 mph - N/A   Overcast
12:53 PM 39.0 °F 31.4 °F 16.0 °F 39% 30.26 in 10.0 mi West 12.7 mph 16.1 mph N/A   Overcast
1:53 PM 39.9 °F 33.4 °F 16.0 °F 38% 30.23 in 10.0 mi WNW 10.4 mph 16.1 mph N/A   Overcast
2:53 PM 42.1 °F 34.9 °F 14.0 °F 32% 30.21 in 10.0 mi West 13.8 mph 23.0 mph N/A   Mostly Cloudy
3:53 PM 43.0 °F 36.8 °F 14.0 °F 31% 30.19 in 10.0 mi West 11.5 mph - N/A   Scattered Clouds
4:53 PM 43.0 °F 37.2 °F 12.9 °F 30% 30.19 in 10.0 mi NW 10.4 mph 19.6 mph N/A   Partly Cloudy
5:53 PM 43.0 °F 36.0 °F 12.0 °F 28% 30.20 in 10.0 mi NNW 13.8 mph 20.7 mph N/A   Partly Cloudy
6:53 PM 41.0 °F 34.7 °F 12.9 °F 32% 30.21 in 10.0 mi NW 10.4 mph - N/A   Clear
7:53 PM 39.0 °F 32.8 °F 14.0 °F 36% 30.21 in 10.0 mi NW 9.2 mph - N/A   Clear
8:53 PM 36.0 °F 32.1 °F 16.0 °F 44% 30.23 in 10.0 mi NNW 4.6 mph - N/A   Clear
9:53 PM 30.9 °F - 16.0 °F 54% 30.25 in 10.0 mi Calm Calm - N/A   Clear
10:53 PM 28.9 °F - 18.0 °F 64% 30.26 in 10.0 mi Calm Calm - N/A   Clear
11:53 PM 30.0 °F 26.5 °F 18.0 °F 61% 30.27 in 10.0 mi NW 3.5 mph - N/A   Clear